Location: Ch�teau-Arnoux
(44.0814°N, 6.0027°E)
Time: 18:06:09
(UTC+00:00)

USA 116 - Pass Details

Date: 15 November 2019
Orbit: 405 x 834 km, 97.9° (Epoch: 18 November)

Event Time Altitude Azimuth Distance (km) Brightness Sun altitude
Rises 05:14:22 0° 172° (S) 2,324 7.2 -13.8°
Reaches altitude 10° 05:16:18 10° 175° (S) 1,484 6.1 -13.4°
Maximum altitude 05:19:25 65° 258° (WSW) 481 3.1 -12.9°
Drops below altitude 10° 05:22:48 10° 341° (NNW) 1,609 5.8 -12.3°
Enters shadow 05:24:37 - 344° (NNW) 2,395 6.7 -12.0°
